Tracking 26911 objects as of 8-Feb-2023
HD Live streaming from Space Station
objects crossing your sky now

ATLAS 75E DEB

Track ATLAS 75E DEB now!
10-day predictions


NORAD ID: 25842
Int'l Code: 1983-072C
Perigee: 1,521.9 km
Apogee: 19,722.2 km
Inclination: 64.8 °
Period: 367.4 minutes
Semi major axis: 16993 km
RCS: 0.0797 m2 (small)
Launch date: July 14, 1983
Source: United States (US)
Launch site: AIR FORCE WESTERN TEST RANGE (AFWTR)

Note: This is SATELLITE DEBRIS
Your satellite tracking list
Your tracking list is empty




NASA's NSSDC Master Catalog

Two Line Element Set (TLE):
1 25842U 83072C   23033.69628234  .00000006  00000-0  00000-0 0  9998
2 25842  64.8358 128.4673 5355201 142.7427   2.9604  3.91918596 27276
Source of the keplerian elements: AFSPC